NETSAT-3 (46505 NORAD) Tracking and Keplerian Element Data

This shows tracking and keplerian element data for the satellite.

Feedback or suggestion? Click here.




ElementValue
Catalog46505
NameNETSAT-3
Epoch Orbit469
Epoch Day304.26147731
Epoch Year2020
RAAN237.3822
Inclination97.6644
Eccentricity0.0012023
Argument of Perigee141.403
Mean Anonmoly218.7957
Mean Motion15.01800945
Decay Rate-5.3E-07
L11 46505U 20068V 20304.26147731 -.00000053 00000-0 54860-6 0 9994
L22 46505 97.6644 237.3822 0012023 141.4030 218.7957 15.01800945 4697

Live tracking and technical data element details for NETSAT-3 (NORAD 46505). NETSAT-3 can be tracked NOW for your location showing map with azimuth and elevation plus other details from your city location.

Track the satellite on the map from your city or location and see movement details for azimuth, elevation, latitude, longitude, range, height, and movement on the map or in text.







IsCatalogInMostPopularTable: catalog: 46505, numindb: 6
Update: records affected: 1



GetName: 46505 NETSAT-3

Hit Count: updated at: Sat, 31 Oct 2020 07:24:32 GMT